STARLINK-2711 (48673 NORAD) Tracking and Keplerian Element Data

This shows tracking and keplerian element data for the satellite.

Feedback or suggestion? Click here.




ElementValue
Catalog48673
NameSTARLINK-2711
Epoch Orbit181
Epoch Day170.58334491
Epoch Year2021
RAAN306.2644
Inclination53.048
Eccentricity0.0001174
Argument of Perigee51.5938
Mean Anonmoly71.496
Mean Motion15.73228969
Decay Rate-7.555E-05
L11 48673U 21044AM 21170.58334491 -.00007555 00000-0 -49383-4 0 9992
L22 48673 53.0480 306.2644 0001174 51.5938 71.4960 15.73228969 1818

Live tracking and technical data element details for STARLINK-2711 (NORAD 48673). STARLINK-2711 can be tracked NOW for your location showing map with azimuth and elevation plus other details from your city location.

Track the satellite on the map from your city or location and see movement details for azimuth, elevation, latitude, longitude, range, height, and movement on the map or in text.







IsCatalogInMostPopularTable: catalog: 48673, numindb: 5
Update: records affected: 1



GetName: 48673 STARLINK-2711

Hit Count: updated at: Mon, 21 Jun 2021 03:17:03 GMT